Temp
28 25 23 23 23 23 23 24 23 23 23 23 23 23 23 23 23 22 22 23 22 21 21 21 21 21 21 21 21 21 20 20 20 20 20 20 20 20 20 21 22 22 20
27 25 23 22 22 23 23 23 23 23 23 23 23 23 23 23 23 22 22 22 22 22 21 21 21 21 21 21 21 21 20 20 20 20 20 20 20 20 20 21 22 21 20
27 25 23 22 22 23 23 23 23 23 23 23 23 23 23 23 22 22 22 22 21 22 21 21 21 21 22 21 21 21 20 20 20 20 22 24 22 20 20 20 21 20 20
27 26 25 22 22 22 23 23 23 23 23 23 23 22 22 22 22 22 21 22 22 21 22 21 21 21 21 21 21 21 20 20 20 22 24 25 24 20 20 20 20 20 20
27 27 24 22 22 22 23 23 23 23 23 23 22 22 22 22 22 21 22 22 22 21 22 22 21 21 21 21 20 21 21 20 21 22 23 24 24 21 20 20 20 21 20
27 27 23 22 22 21 22 22 22 22 22 22 22 22 22 22 22 22 21 22 22 22 21 22 21 22 21 21 21 20 20 21 22 24 23 23 24 22 20 20 20 21 20
27 27 23 22 22 22 21 21 21 22 22 22 21 21 21 22 22 22 22 22 22 22 22 21 22 22 21 21 21 21 21 21 24 24 24 24 23 21 20 20 20 20 20
27 27 24 22 22 22 21 22 22 21 21 21 21 21 22 22 22 21 21 22 22 22 22 21 21 22 21 20 21 21 21 22 23 24 24 24 22 21 20 20 20 20 20
27 27 25 24 22 22 21 22 22 22 21 22 22 21 22 22 22 21 21 21 22 22 22 22 21 21 21 21 21 22 22 22 24 25 24 24 22 21 20 21 20 20 20
26 26 26 24 23 23 23 22 22 21 21 22 22 22 21 21 21 21 21 22 22 22 22 21 21 21 21 21 21 22 22 22 23 24 24 24 22 22 20 20 20 20 21
26 26 25 24 24 24 24 23 22 22 22 22 22 21 21 24 23 22 23 22 22 21 21 21 21 21 22 22 21 21 21 24 24 25 24 24 22 22 20 20 20 20 21
27 26 25 25 25 23 25 24 24 23 22 24 24 23 24 25 24 24 23 22 21 21 21 21 21 21 22 24 22 21 23 25 25 24 24 23 22 22 21 20 20 20 20
27 27 25 25 25 25 25 25 23 25 25 22 23 22 23 23 23 23 22 22 22 22 23 23 22 23 24 24 24 24 25 25 25 25 25 23 22 22 21 21 20 20 20
27 26 25 24 24 24 25 24 25 25 24 23 22 22 21 22 22 22 22 22 22 22 23 24 25 25 24 24 24 24 24 24 25 25 25 23 22 22 22 21 21 21 20
27 26 25 24 24 24 23 23 22 22 21 21 21 21 21 21 22 22 22 23 23 22 22 22 23 23 23 23 23 24 24 24 24 25 25 23 22 22 22 21 21 21 21
27 26 25 24 23 23 22 23 22 22 23 22 22 22 21 21 22 22 22 22 24 24 22 22 22 23 24 23 23 23 23 24 24 24 25 24 23 22 22 22 22 22 22
27 26 23 24 23 23 22 22 22 22 22 22 22 21 21 21 22 22 22 24 25 24 22 22 22 22 23 23 23 23 23 23 24 23 23 24 24 23 22 22 22 22 22
27 25 23 25 26 22 23 22 21 21 21 21 20 21 21 21 21 22 22 22 23 22 22 22 23 22 23 24 23 23 24 24 24 23 23 23 24 25 24 23 22 22 22
26 24 21 23 25 22 22 21 21 21 20 20 21 21 21 21 22 22 22 23 22 24 23 23 23 22 22 23 24 24 24 23 24 24 23 23 23 23 24 24 23 22 22
24 25 23 19 22 22 21 21 21 20 20 20 20 20 21 22 22 22 22 22 22 23 22 22 23 23 24 24 23 23 24 24 24 23 23 23 23 23 23 23 24 23 23
22 23 25 25 20 21 20 21 20 20 20 20 20 21 22 22 22 22 22 23 22 22 23 23 23 23 22 22 21 23 24 24 23 24 24 24 25 24 24 24 22 23 23
21 22 21 20 23 21 23 23 22 20 20 21 21 22 22 22 21 22 22 22 22 22 22 22 21 21 22 21 22 23 25 26 25 24 25 24 24 24 24 24 22 22 22
22 22 22 22 22 22 23 22 21 21 20 21 21 21 21 22 21 21 21 21 22 21 24 22 22 21 23 22 21 22 23 27 25 24 24 24 23 22 22 24 23 23 22
23 23 24 22 21 22 22 23 23 24 23 22 21 21 21 21 21 21 21 21 21 22 22 22 22 20 19 20 20 21 21 21 23 23 23 22 20 19 20 22 23 22 21
23 24 23 22 22 22 22 23 23 23 22 21 21 21 21 20 20 21 20 20 21 20 20 20 20 20 19 19 20 20 21 21 21 22 23 23 20 18 18 19 20 20 20
24 24 24 22 22 22 22 22 22 22 22 23 22 22 22 22 21 20 19 19 19 20 20 21 20 20 19 20 20 18 19 21 23 21 22 22 22 18 18 18 18 19 19
Height
803 808 812 814 817 819 820 820 822 824 826 827 829 831 832 833 833 835 836 838 840 841 842 844 843 844 844 845 844 845 846 847 848 848 849 850 850 852 852 853 853 854 854
804 810 812 816 819 820 821 823 824 826 828 829 831 833 835 836 836 838 839 841 842 843 843 844 845 846 846 846 847 847 848 849 850 851 851 852 853 854 854 854 855 855 856
807 812 816 818 820 822 823 825 826 828 830 830 833 835 836 838 840 841 842 843 843 842 844 845 845 846 847 847 848 849 849 851 852 853 853 854 856 856 856 857 857 858 859
810 814 818 820 822 824 825 826 828 830 832 833 834 836 838 839 841 842 845 846 844 844 844 846 846 847 848 848 849 850 851 852 854 854 853 855 856 858 858 859 860 860 861
812 815 820 822 825 825 827 828 829 831 833 835 836 837 838 840 842 843 844 845 845 846 845 845 847 848 849 850 850 851 852 853 854 855 856 856 857 859 860 861 861 862 863
813 816 821 824 826 828 829 831 832 833 834 835 836 838 839 840 842 844 845 846 846 846 846 846 848 848 849 850 851 852 853 854 855 856 857 858 858 860 861 862 863 863 864
815 818 823 826 827 829 832 833 835 835 836 837 838 840 841 842 843 843 845 846 847 847 847 846 848 849 849 851 852 853 854 855 856 857 857 858 859 861 861 863 863 864 865
816 820 823 826 828 830 832 834 836 837 838 839 840 841 842 843 843 844 844 845 847 847 847 847 848 848 850 851 851 852 854 855 856 857 858 858 859 860 862 863 864 864 865
818 821 824 827 829 830 831 833 835 837 838 839 840 841 843 843 844 844 845 845 846 847 848 848 848 848 848 851 851 852 853 855 857 856 857 858 858 860 861 862 863 864 864
818 820 823 825 828 830 831 833 835 837 839 840 840 841 843 843 844 845 846 845 845 847 848 848 848 848 849 849 851 852 853 855 857 856 856 857 857 858 860 861 862 863 864
818 819 822 825 827 830 832 833 835 837 839 841 841 841 842 843 843 845 845 846 846 847 848 848 848 848 849 850 851 852 853 854 853 853 855 855 857 858 858 860 861 862 863
816 818 822 825 827 829 830 832 834 836 838 840 841 841 842 842 843 844 844 846 846 846 847 847 848 848 849 850 851 852 852 851 852 853 853 854 855 856 858 859 860 861 862
816 820 823 825 827 829 830 832 832 833 834 838 840 842 842 842 843 844 844 846 846 845 845 846 848 847 846 847 848 850 849 850 850 851 850 852 853 855 856 857 859 860 861
815 819 824 827 829 829 830 830 831 831 832 835 838 841 842 843 842 842 842 844 843 844 843 844 843 844 845 846 847 848 848 849 848 848 848 850 852 852 854 855 857 857 859
812 816 819 824 827 830 830 829 829 831 832 831 833 837 840 843 842 841 841 841 841 841 843 844 843 844 844 845 846 846 847 847 847 848 848 848 850 850 852 853 853 854 855
814 817 820 822 824 825 827 827 827 828 829 830 831 835 839 841 840 839 840 839 839 839 839 841 841 842 842 842 843 844 845 845 845 846 845 845 846 847 849 850 850 851 853
811 814 819 817 815 822 825 826 825 826 827 827 829 833 836 839 838 838 838 837 836 836 837 838 839 839 839 839 840 841 842 842 843 843 844 843 843 843 845 847 848 849 850
810 815 816 819 820 823 825 825 825 825 827 827 827 829 832 835 835 835 835 834 834 834 835 836 836 835 835 835 836 837 837 838 839 840 841 841 841 840 841 843 845 846 848
812 818 820 815 819 822 826 826 826 824 825 826 827 829 830 831 830 831 832 831 831 831 831 832 831 832 832 833 832 833 833 834 834 835 836 837 838 839 838 838 841 842 844
811 810 808 803 815 822 826 824 824 820 822 823 826 828 828 827 827 827 828 827 828 829 829 828 828 828 828 827 829 829 828 829 829 830 831 833 834 835 836 837 838 838 839
807 803 789 794 815 824 824 823 822 819 821 823 823 824 824 825 825 825 826 825 826 826 825 826 826 825 826 826 827 824 823 824 826 826 827 828 829 831 832 833 834 836 837
808 810 809 807 817 822 824 821 819 820 819 817 819 820 822 823 824 825 824 824 824 824 824 824 823 823 822 823 822 821 817 814 817 820 822 824 826 827 828 830 832 833 833
806 808 814 814 819 822 823 822 820 821 821 820 817 820 824 823 824 824 824 824 823 822 819 819 819 819 817 819 820 821 816 806 813 817 819 821 824 826 827 827 828 830 830
803 803 806 811 818 821 820 819 819 818 820 819 821 820 823 823 823 823 822 821 820 818 817 817 816 816 816 816 817 817 818 817 815 816 816 820 823 825 825 826 825 826 828
803 804 805 812 814 817 817 816 818 818 820 820 822 822 822 823 823 822 821 819 818 817 816 815 814 814 813 813 814 815 815 816 816 815 814 818 822 824 824 824 824 825 825
802 804 805 809 812 814 815 815 818 821 820 821 822 822 822 821 821 821 820 817 816 815 814 813 813 812 811 811 812 813 813 812 810 813 814 817 820 826 825 825 825 826 827
Wind_Speed
16 16 17 18 16 17 17 16 17 16 16 18 18 17 17 16 15 13 13 11 10 9 8 7 7 7 8 9 10 11 9 10 10 11 11 11 10 13 12 14 14 11 12
20 18 18 18 16 17 17 16 16 16 16 17 18 17 15 15 14 12 11 10 9 6 5 7 7 8 9 9 9 10 10 9 10 11 12 11 10 10 11 9 7 12 13
19 18 16 16 16 14 15 16 16 15 14 15 17 17 15 14 13 12 10 11 8 4 7 7 7 8 7 9 8 9 10 9 10 10 10 9 9 10 10 8 9 10 12
18 17 15 16 15 15 15 16 15 14 14 14 16 16 14 13 11 10 9 10 9 9 6 8 8 8 8 9 9 10 10 10 11 11 7 9 9 8 9 8 10 9 8
16 16 15 15 14 14 15 15 15 14 14 14 14 14 13 12 10 9 9 9 10 9 7 8 8 9 9 9 9 11 10 10 10 7 6 6 7 6 10 9 8 8 8
14 13 14 13 13 12 13 14 14 14 13 13 12 12 12 11 10 8 8 8 7 8 8 6 8 8 9 10 9 10 10 9 9 5 6 6 3 6 7 8 7 8 8
14 13 13 13 12 12 11 10 11 11 11 10 10 10 10 10 9 8 8 7 7 7 7 9 9 9 10 10 10 11 9 9 6 6 6 5 4 4 6 8 8 6 8
13 13 14 13 12 12 12 11 10 10 10 9 8 9 9 8 7 7 6 6 6 6 6 8 10 9 11 11 12 12 10 11 7 6 5 5 5 6 8 7 6 7 6
13 12 12 12 11 11 11 11 11 10 10 9 9 9 9 9 8 7 7 6 6 6 6 6 7 9 12 12 11 14 13 11 7 5 5 5 6 7 8 8 6 7 7
13 13 13 13 12 11 9 11 11 11 10 9 10 10 10 9 8 7 7 7 7 6 6 6 7 8 12 13 12 13 12 11 9 8 6 6 7 8 9 10 9 9 8
14 14 13 13 11 11 9 9 9 9 9 9 8 9 8 8 7 7 7 6 8 7 6 6 6 9 10 11 12 12 11 10 11 8 6 10 10 9 10 11 11 10 9
16 15 14 13 12 11 10 10 10 10 8 8 9 9 9 8 7 7 5 6 6 7 7 8 8 9 10 11 10 11 11 10 9 7 5 9 11 12 10 13 12 12 11
15 13 12 13 12 12 10 10 12 10 10 9 9 10 9 9 8 7 6 5 6 7 9 7 7 9 10 10 11 12 12 12 12 10 8 9 10 13 13 12 14 14 14
15 13 11 11 10 11 10 11 11 12 10 8 8 9 8 9 8 9 8 6 8 9 7 7 9 7 8 9 9 10 12 12 12 11 10 12 11 12 14 13 14 15 15
14 14 12 11 11 11 12 10 11 10 10 8 7 9 12 14 12 11 11 10 8 9 9 9 8 9 10 9 10 11 12 12 12 11 11 12 14 15 14 14 17 18 17
12 10 9 8 11 12 14 13 13 14 13 12 11 12 13 18 16 14 13 11 9 10 10 10 9 10 10 10 11 12 11 12 12 13 13 12 14 18 16 15 18 19 19
13 11 11 12 16 14 13 13 13 15 14 16 19 16 17 20 19 17 14 12 10 11 9 10 9 10 12 12 12 11 12 13 13 14 15 14 13 14 20 17 18 19 19
12 12 14 15 9 14 15 15 11 13 13 11 13 18 18 20 17 14 13 13 12 10 11 10 10 11 12 14 12 12 14 14 15 16 17 16 12 13 13 17 18 18 21
9 7 6 21 17 11 14 11 8 11 9 5 14 18 21 16 14 15 15 13 12 12 11 11 11 12 11 12 13 13 14 15 15 16 19 19 17 13 14 13 14 18 19
19 12 13 27 17 17 8 10 10 6 11 9 6 10 8 9 8 10 10 10 8 10 11 10 11 12 12 12 12 14 14 15 16 14 16 19 19 17 15 14 14 14 17
18 19 20 19 31 17 11 8 7 14 10 6 4 4 4 4 5 6 7 8 9 9 10 9 11 12 12 10 9 15 18 17 17 15 14 16 16 16 15 15 14 13 11
19 17 12 18 12 12 8 4 6 13 12 11 2 0 1 3 2 3 4 6 8 8 9 11 12 12 12 9 9 10 8 13 16 17 15 13 13 13 14 14 12 12 12
14 17 20 15 7 9 9 8 10 8 6 3 3 4 3 2 0 2 4 6 7 8 11 9 11 11 13 9 12 8 4 5 6 7 13 10 6 8 8 11 12 11 9
10 12 13 9 9 10 9 8 9 6 4 2 5 5 3 2 2 3 5 6 8 9 8 9 9 11 11 10 8 12 13 6 3 4 9 7 3 1 4 7 9 9 7
10 11 14 13 12 10 10 7 5 3 5 6 5 4 2 2 4 4 4 5 7 7 6 7 7 7 8 9 9 5 9 11 10 4 4 9 9 9 9 3 3 3 3
10 12 13 14 13 12 10 9 5 5 6 5 4 3 1 2 3 5 5 4 4 4 3 3 4 4 4 5 6 9 9 6 12 9 4 6 7 8 9 10 8 7 7
Wind_Direction
149 149 158 156 151 149 146 151 157 157 159 156 155 150 146 145 137 137 134 125 119 117 122 137 134 123 115 124 111 123 120 116 119 119 120 115 109 118 125 118 112 112 114
145 146 156 157 153 154 150 149 154 156 157 162 160 159 154 153 148 146 136 123 101 113 138 133 142 134 128 128 124 125 126 120 125 126 123 118 123 123 124 112 87 120 120
144 146 146 153 154 155 151 151 152 152 150 161 165 164 159 155 153 151 143 128 132 165 159 147 148 141 146 142 141 132 129 128 124 122 131 122 128 128 126 118 122 119 122
144 147 147 152 155 154 155 157 156 155 147 149 159 165 163 160 161 155 147 144 180 180 160 151 151 150 148 144 141 143 136 133 138 141 145 124 128 137 131 132 128 128 127
146 147 149 149 155 156 159 159 160 158 156 156 159 165 168 167 169 167 164 164 177 181 187 152 163 158 154 151 154 152 147 141 138 144 114 112 130 155 138 141 130 127 118
151 147 157 154 153 158 161 161 161 159 158 160 164 167 168 169 171 174 168 168 171 185 192 191 170 172 164 165 160 151 150 150 130 136 148 130 119 157 154 150 154 167 150
152 149 156 163 159 160 160 162 165 162 161 164 167 169 173 169 170 171 168 166 161 177 183 191 186 183 168 170 164 157 161 158 156 137 141 145 137 164 169 166 164 154 154
153 154 160 167 167 163 162 163 171 171 167 165 170 174 174 179 180 175 168 163 171 172 180 189 191 192 175 178 175 168 165 159 156 148 149 156 182 172 175 167 163 168 170
154 159 163 170 172 169 166 171 177 178 174 175 178 186 186 191 193 192 182 176 173 169 183 192 193 194 183 188 185 181 178 170 187 186 186 187 202 183 185 182 193 188 182
162 167 172 175 176 175 183 184 182 183 184 190 189 196 193 197 196 205 203 187 180 180 174 183 188 191 189 191 185 190 197 205 200 201 200 200 217 189 192 199 195 199 200
175 177 177 178 182 183 185 194 190 197 198 203 207 204 205 204 208 199 204 191 188 191 188 185 186 187 190 198 194 192 189 202 215 217 212 209 222 204 195 212 208 214 210
184 185 185 187 187 185 188 189 193 197 201 211 215 210 206 213 212 205 199 213 203 203 201 193 191 188 186 194 206 205 208 219 223 224 222 229 222 213 206 211 222 217 223
187 187 191 195 194 193 195 196 194 198 202 217 214 233 224 214 214 217 212 213 228 220 211 190 203 201 198 198 201 209 216 220 226 230 230 232 220 217 218 217 226 227 228
187 194 203 207 203 207 203 208 203 199 197 204 231 243 245 236 235 223 226 232 247 236 234 218 208 217 209 211 216 216 223 228 230 234 232 243 224 223 227 228 232 232 229
186 194 197 202 213 221 220 217 220 216 208 192 212 245 254 258 252 235 227 241 246 243 229 225 225 208 212 213 221 225 229 230 237 237 241 248 239 234 237 237 231 232 235
191 199 195 200 224 221 230 225 221 228 232 223 224 225 245 253 250 245 256 256 247 249 233 225 221 221 222 220 223 229 233 236 236 238 241 241 249 237 236 245 239 239 234
184 180 168 213 229 223 228 219 218 228 230 238 235 224 239 252 254 253 252 250 243 242 235 235 232 231 232 233 237 235 234 239 244 244 243 243 238 250 241 243 242 242 245
177 172 188 198 297 249 231 223 227 225 243 239 255 230 242 256 250 245 252 249 243 247 242 246 242 244 244 239 235 237 239 247 247 246 242 237 243 242 243 244 243 246 249
156 156 214 215 242 270 242 233 234 224 210 261 239 239 241 256 243 241 243 242 234 243 241 245 248 245 243 246 249 244 245 246 246 249 241 236 241 242 243 241 248 250 250
136 109 295 301 243 258 282 240 235 205 215 209 250 238 254 226 228 229 230 230 225 245 245 246 247 246 251 250 246 244 246 243 240 242 237 237 237 243 241 246 247 251 246
126 128 76 250 251 241 247 243 187 160 143 149 159 254 219 211 223 218 230 232 236 238 251 250 249 250 254 250 248 251 246 237 237 237 234 236 236 236 243 243 240 245 249
129 132 218 204 218 205 227 195 166 166 174 155 178 241 42 110 186 220 233 245 245 252 249 255 253 254 257 232 249 276 252 225 223 229 232 231 237 241 232 235 236 235 238
142 147 160 157 174 175 162 138 131 141 158 172 113 110 102 97 111 273 274 270 270 266 264 261 255 245 256 243 242 245 273 257 183 211 224 224 232 232 257 253 247 243 232
157 153 162 148 162 163 154 153 170 190 189 145 141 133 117 57 350 324 304 287 271 266 267 260 256 252 245 245 239 235 242 293 239 194 171 157 140 161 238 257 252 239 240
150 143 139 149 150 152 139 123 157 164 158 144 141 144 98 33 9 347 328 297 275 264 260 271 274 266 255 247 234 242 240 241 254 266 182 150 98 68 64 134 166 96 126
143 144 138 146 153 156 150 132 127 143 145 156 157 127 88 64 38 14 5 344 309 301 293 319 317 294 273 242 227 236 235 231 230 231 220 155 129 72 72 84 80 97 103